KG4GJX Weather Reports


Display with metric or nautical units.
time (UTC)temp
F
wind
direction
speed
MPH
gust
MPH
rain 1hr
in
rain 24hr
in
rain mn
in
humidity
%
barometer
mb
20260504001616 60 148 0.0 0.0 0.00 0.00 0.00 63 1015.9
20260504000504 62 148 0.0 1.0 0.00 0.00 0.00 59 1015.9
20260503235402 65 196 0.0 0.0 0.00 0.00 0.00 54 1015.9
20260503234300 68 196 0.0 0.0 0.00 0.00 0.00 49 1016.2
20260503233157 70 196 0.0 0.0 0.00 0.00 0.00 45 1016.2
20260503232055 69 196 0.0 2.0 0.00 0.00 0.00 45 1016.2
20260503230952 69 104 1.0 4.0 0.00 0.00 0.00 44 1016.2
20260503225850 69 134 0.0 2.0 0.00 0.00 0.00 45 1016.5
20260503224747 70 148 1.0 6.0 0.00 0.00 0.00 44 1016.5
20260503223645 71 111 2.0 5.0 0.00 0.00 0.00 42 1016.5
20260503222543 71 166 3.0 3.0 0.00 0.00 0.00 42 1016.5
20260503221440 70 231 2.0 7.0 0.00 0.00 0.00 43 1016.9
20260503220338 70 189 0.0 3.0 0.00 0.00 0.00 43 1016.9
20260503215235 70 246 3.0 5.0 0.00 0.00 0.00 41 1016.9
20260503214133 70 232 4.0 4.0 0.00 0.00 0.00 42 1016.9
20260503213030 70 193 1.0 6.0 0.00 0.00 0.00 43 1017.2
20260503211928 70 203 1.0 9.0 0.00 0.00 0.00 42 1017.2
20260503210826 70 169 5.0 8.0 0.00 0.00 0.00 41 1017.2
20260503205723 70 166 2.0 6.0 0.00 0.00 0.00 43 1017.6
20260503204621 70 314 1.0 7.0 0.00 0.00 0.00 42 1017.6
20260503203519 70 60 0.0 5.0 0.00 0.00 0.00 40 1017.9
20260503202414 70 168 3.0 7.0 0.00 0.00 0.00 43 1017.9
20260503201233 69 179 0.0 6.0 0.00 0.00 0.00 41 1018.2
20260503200130 69 176 1.0 9.0 0.00 0.00 0.00 44 1018.6
20260503195028 69 215 5.0 9.0 0.00 0.00 0.00 41 1018.6
20260503193926 69 35 0.0 7.0 0.00 0.00 0.00 42 1018.9
20260503192823 68 193 2.0 7.0 0.00 0.00 0.00 43 1018.9
20260503191721 67 103 1.0 10.0 0.00 0.00 0.00 44 1018.9
20260503190619 67 333 0.0 6.0 0.00 0.00 0.00 42 1019.3
20260503185516 68 191 2.0 4.0 0.00 0.00 0.00 42 1019.3
20260503184413 67 285 1.0 7.0 0.00 0.00 0.00 42 1019.3
20260503183311 66 181 3.0 7.0 0.00 0.00 0.00 50 1019.6
20260503182206 65 357 2.0 4.0 0.00 0.00 0.00 46 1019.6
20260503181104 67 200 0.0 4.0 0.00 0.00 0.00 46 1019.6
20260503180002 65 173 0.0 9.0 0.00 0.00 0.00 46 1019.9
20260503171903 64 147 5.0 6.0 0.00 0.00 0.00 51 1020.3
20260503170801 62 323 2.0 7.0 0.00 0.00 0.00 50 1020.6
20260503160145 60 30 2.0 6.0 0.00 0.00 0.00 53 1020.9
20260503150631 58 31 2.0 2.0 0.00 0.00 0.00 57 1021.3
20260503130504 47 14 0.0 2.0 0.00 0.00 0.00 100 1020.9
20260503090230 40 327 0.0 0.0 0.00 0.00 0.00 100 1018.9
20260503072315 43 327 0.0 0.0 0.00 0.00 0.00 100 1018.2
20260503070113 43 327 0.0 0.0 0.00 0.00 0.00 100 1017.9
20260503053300 44 59 0.0 0.0 0.00 0.00 0.00 100 1017.9
20260503052158 44 59 0.0 0.0 0.00 0.00 0.00 99 1017.9
20260503051055 45 59 0.0 0.0 0.00 0.00 0.00 98 1017.9
20260503045953 46 59 0.0 0.0 0.00 0.00 0.00 96 1017.9
20260503044850 46 59 0.0 0.0 0.00 0.00 0.00 94 1017.9
20260503043747 47 59 0.0 0.0 0.00 0.00 0.00 92 1017.9
20260503042645 48 59 0.0 0.0 0.00 0.00 0.00 91 1017.6
20260503041543 48 59 0.0 0.0 0.00 0.00 0.00 86 1017.6
20260503040440 49 57 0.0 0.0 0.00 0.00 0.00 85 1017.6
20260503035338 50 52 0.0 0.0 0.00 0.00 0.00 82 1017.6
20260503034235 51 265 0.0 1.0 0.00 0.00 0.00 79 1017.6
20260503033133 52 127 0.0 0.0 0.00 0.00 0.00 75 1017.2
20260503032031 52 11 0.0 0.0 0.00 0.00 0.00 74 1017.2
20260503030928 53 312 2.0 3.0 0.00 0.00 0.00 72 1017.6
20260503025826 54 350 1.0 3.0 0.00 0.00 0.00 70 1017.6
20260503024723 54 290 2.0 6.0 0.00 0.00 0.00 68 1017.6
20260503023621 55 328 1.0 8.0 0.00 0.00 0.00 65 1017.2
20260503022519 55 323 3.0 10.0 0.00 0.00 0.00 62 1016.9
20260503021417 56 52 0.0 3.0 0.00 0.00 0.00 61 1016.9
20260503020315 56 74 0.0 0.0 0.00 0.00 0.00 62 1016.9
20260503015212 55 328 0.0 0.0 0.00 0.00 0.00 63 1016.5
20260503013010 55 311 0.0 0.0 0.00 0.00 0.00 65 1016.2
20260503011907 54 266 0.0 1.0 0.00 0.00 0.00 72 1015.9
20260503010805 54 355 0.0 0.0 0.00 0.00 0.00 73 1015.9
20260503005702 53 355 0.0 0.0 0.00 0.00 0.00 70 1015.5
20260503004600 54 355 0.0 0.0 0.00 0.00 0.00 71 1015.2
20260503003458 55 355 0.0 0.0 0.00 0.00 0.00 64 1015.2